4XHHF LLMZ-LLRS

Flight info

Callsign 4XHHF
Flight time N/A
Altitude 800
Route LSA CVFR
Aircraft FDCT/L-S/C

Departure

Time 2026-04-24 07:30
Airport Bar Yehuda Airfield (LLMZ)

Arrival

Time N/A
Airport Rishon Lezion Airfield (LLRS)
Time Latitude Longitude Altitude Speed Heading
2026-04-24 07:19 31.32927 35.38819 -1239 ft 0 kts 110°
2026-04-24 07:29 31.32929 35.38867 -1239 ft 15 kts 63°
2026-04-24 07:29 31.32974 35.38880 -1237 ft 27 kts
2026-04-24 07:29 31.33378 35.38946 -1186 ft 78 kts
2026-04-24 07:29 31.33816 35.39035 -1148 ft 58 kts 12°
2026-04-24 07:30 31.34237 35.39149 -1073 ft 67 kts 14°
2026-04-24 07:30 31.34768 35.39287 -987 ft 87 kts 12°
2026-04-24 07:30 31.35381 35.39441 -789 ft 95 kts 10°
2026-04-24 07:30 31.36041 35.39590 -625 ft 92 kts
2026-04-24 07:31 31.36593 35.39695 -501 ft 79 kts
2026-04-24 07:31 31.37187 35.39775 -417 ft 92 kts
2026-04-24 07:31 31.37782 35.39853 -340 ft 88 kts
2026-04-24 07:31 31.38429 35.40005 -323 ft 85 kts 11°
2026-04-24 07:32 31.38991 35.40152 -319 ft 90 kts 11°
2026-04-24 07:32 31.39567 35.40428 -271 ft 81 kts 50°
2026-04-24 07:32 31.40080 35.40892 -455 ft 84 kts 31°
2026-04-24 07:32 31.40638 35.41033 -707 ft 81 kts 19°
2026-04-24 07:33 31.41213 35.41273 -1092 ft 101 kts 342°
2026-04-24 07:33 31.41925 35.41036 -1315 ft 100 kts 358°
2026-04-24 07:33 31.42128 35.41027 -1349 ft 0 kts 357°